Weather History for New Castle, PA

Change the Weather History Date:

Wednesday, March 19, 2014

  Actual Average Record
Temperature  
Mean Temperature 41 °F -  
Max Temperature 48 °F 48 °F 75 °F (1927)
Min Temperature 34 °F 26 °F -2 °F (1934)
Degree Days  
Heating Degree Days 24    
Moisture  
Dew Point 39 °F    
Average Humidity 84    
Maximum Humidity 100    
Minimum Humidity 59    
Precipitation  
Precipitation 0.21 in - - ()
Sea Level Pressure  
Sea Level Pressure 29.86 in    
Wind  
Wind Speed 6 mph (SSW)    
Max Wind Speed 20 mph    
Max Gust Speed 30 mph    
Visibility 8 miles    
Events Rain    
Averages and records for this station are not official NWS values.
T = Trace of Precipitation, MM = Missing Value Source: NWS Daily Summary

Daily Weather History Graph

Daily Weather History Graph

Search for Another Location

Airport:

Trip Planner

Search our weather history database for the weather conditions in past years. The results will help you decide how hot, cold, wet, or windy it might be!

Date:

Astronomy

Mar. 19, 2014 Rise Set
Actual Time 7:26 AM EDT 7:32 PM EDT
Civil Twilight 6:59 AM EDT 8:00 PM EDT
Nautical Twilight 6:27 AM EDT 8:32 PM EDT
Astronomical Twilight 5:54 AM EDT 9:04 PM EDT
Moon 10:51 PM EDT (3/19) 8:50 AM EDT (3/19)
Length of Visible Light 13h 00m
Length of Day
12h 06m
Waning Gibbous, 91% of the Moon is Illuminated
Mar 19
Waning Gibbous
Mar 23
Last Quarter
Mar 30
New
Apr 7
First Quarter
Apr 15
Full

Hourly Weather History & Observations

Time (EDT) Temp. Windchill Dew Point Humidity Pressure Visibility Wind Dir Wind Speed Gust Speed Precip Events Conditions
12:56 AM 36.0 °F 31.1 °F 23.0 °F 59% 30.07 in 10.0 mi SE 5.8 mph - N/A   Clear
1:56 AM 36.0 °F 31.1 °F 23.0 °F 59% 30.06 in 10.0 mi SE 5.8 mph - N/A   Clear
2:56 AM 36.0 °F 30.3 °F 26.1 °F 67% 30.03 in 10.0 mi SE 6.9 mph - N/A   Clear
3:56 AM 34.9 °F - 27.1 °F 73% 30.04 in 10.0 mi Calm Calm - N/A   Clear
4:56 AM 35.6 °F 31.7 °F 28.4 °F 75% 29.95 in 10.0 mi Variable 4.6 mph - N/A   Mostly Cloudy
5:56 AM 36.9 °F - 29.1 °F 74% 29.99 in 10.0 mi Calm Calm - N/A   Scattered Clouds
6:56 AM 37.9 °F 34.4 °F 30.0 °F 73% 29.98 in 10.0 mi SSE 4.6 mph - N/A   Overcast
7:56 AM 37.4 °F 34.9 °F 30.2 °F 75% 29.92 in 10.0 mi South 3.5 mph - N/A   Overcast
8:56 AM 39.9 °F 35.8 °F 32.0 °F 73% 29.99 in 10.0 mi Variable 5.8 mph - N/A   Mostly Cloudy
9:56 AM 43.0 °F 39.5 °F 34.0 °F 71% 29.97 in 10.0 mi Variable 5.8 mph - N/A   Overcast
11:30 AM 46.4 °F 42.4 °F 37.4 °F 71% 29.88 in 10.0 mi South 8.1 mph - N/A   Overcast
11:56 AM 47.8 °F - 37.9 °F 69% 29.94 in 10.0 mi South 11.5 mph 19.6 mph N/A   Mostly Cloudy
12:56 PM 48.9 °F - 39.9 °F 71% 29.90 in 10.0 mi South 10.4 mph 19.6 mph N/A   Scattered Clouds
1:56 PM 47.8 °F - 41.9 °F 80% 29.87 in 3.0 mi SSE 9.2 mph 16.1 mph 0.00 in Rain Light Rain
2:56 PM 46.9 °F - 43.9 °F 89% 29.85 in 4.0 mi SSE 3.5 mph - 0.02 in Rain Light Rain
3:13 PM 46.4 °F - 44.6 °F 93% 29.77 in 2.5 mi Calm Calm - 0.04 in Rain Light Rain
3:35 PM 46.4 °F 44.3 °F 44.6 °F 93% 29.78 in 1.5 mi Variable 4.6 mph - 0.09 in Rain Rain
3:48 PM 46.4 °F 42.9 °F 44.6 °F 93% 29.78 in 3.0 mi Variable 6.9 mph - 0.11 in Rain Light Rain
3:56 PM 45.9 °F 43.6 °F 45.0 °F 97% 29.84 in 4.0 mi South 4.6 mph - 0.13 in Rain Light Rain
4:56 PM 46.4 °F - 44.6 °F 93% 29.75 in 10.0 mi Calm Calm - N/A Rain Light Rain
5:56 PM 46.9 °F - 45.9 °F 96% 29.80 in 10.0 mi Calm Calm - 0.02 in   Overcast
6:56 PM 47.8 °F - 45.9 °F 93% 29.79 in 10.0 mi SSW 9.2 mph - 0.00 in   Overcast
7:18 PM 48.2 °F - 44.6 °F 87% 29.74 in 9.0 mi SSW 8.1 mph - 0.01 in Rain Light Rain
7:47 PM 48.2 °F - 46.4 °F 93% 29.74 in 3.0 mi SW 4.6 mph - 0.04 in Rain Rain
7:56 PM 46.4 °F 45.2 °F 46.4 °F 100% 29.74 in 2.5 mi SW 3.5 mph - N/A Rain Rain
7:59 PM 46.4 °F - 46.4 °F 100% 29.74 in 3.0 mi Calm Calm - 0.00 in Rain Rain
8:16 PM 46.4 °F 42.4 °F 46.4 °F 100% 29.75 in 10.0 mi SSW 8.1 mph - 0.01 in   Overcast
8:56 PM 46.9 °F - 45.0 °F 93% 29.81 in 10.0 mi SW 6.9 mph - 0.01 in   Mostly Cloudy
9:56 PM 45.9 °F 41.2 °F 43.0 °F 90% 29.82 in 10.0 mi WSW 9.2 mph - 0.03 in Rain Light Rain
10:21 PM 44.6 °F 40.2 °F 42.8 °F 93% 29.76 in 10.0 mi WSW 8.1 mph - 0.00 in   Mostly Cloudy
10:28 PM 44.6 °F 38.4 °F 42.8 °F 93% 29.76 in 10.0 mi WSW 12.7 mph 19.6 mph 0.01 in   Mostly Cloudy
10:56 PM 44.6 °F 38.1 °F 42.8 °F 93% 29.77 in 10.0 mi WSW 13.8 mph 20.7 mph N/A   Mostly Cloudy
11:34 PM 44.6 °F 37.2 °F 39.2 °F 81% 29.79 in 10.0 mi WSW 17.3 mph 24.2 mph N/A   Overcast
11:56 PM 43.0 °F 34.5 °F 38.8 °F 85% 29.86 in 7.0 mi West 19.6 mph 29.9 mph 0.00 in Rain Light Rain